| time (UTC) | temp F | wind direction | speed MPH | gust MPH | rain 1hr in | rain 24hr in | rain mn in | humidity % | barometer mb |
| 20260505173005 | 78 | 32 | 3.0 | 6.0 | 0.00 | 0.00 | 0.00 | 84 | 1007.0 |
| 20260505172504 | 78 | 37 | 2.0 | 7.0 | 0.00 | 0.00 | 0.00 | 84 | 1007.0 |
| 20260505171503 | 78 | 50 | 4.0 | 9.0 | 0.00 | 0.00 | 0.00 | 85 | 1007.1 |
| 20260505170503 | 78 | 56 | 4.0 | 9.0 | 0.00 | 0.00 | 0.00 | 84 | 1007.3 |
| 20260505170005 | 78 | 58 | 4.0 | 9.0 | 0.00 | 0.00 | 0.00 | 85 | 1007.3 |
| 20260505165005 | 77 | 44 | 4.0 | 9.0 | 0.00 | 0.00 | 0.00 | 86 | 1007.4 |
| 20260505164505 | 76 | 37 | 4.0 | 8.0 | 0.00 | 0.00 | 0.00 | 87 | 1007.4 |
| 20260505163503 | 75 | 52 | 4.0 | 8.0 | 0.00 | 0.00 | 0.00 | 89 | 1007.5 |
| 20260505163006 | 75 | 50 | 3.0 | 9.0 | 0.00 | 0.00 | 0.00 | 90 | 1007.7 |
| 20260505162503 | 75 | 61 | 3.0 | 9.0 | 0.00 | 0.00 | 0.00 | 89 | 1008.0 |
| 20260505162005 | 75 | 73 | 4.0 | 9.0 | 0.00 | 0.00 | 0.00 | 90 | 1007.8 |
| 20260505161503 | 75 | 35 | 2.0 | 6.0 | 0.00 | 0.00 | 0.00 | 90 | 1007.7 |
| 20260505161005 | 74 | 25 | 2.0 | 6.0 | 0.00 | 0.00 | 0.00 | 93 | 1008.0 |
| 20260505160505 | 73 | 35 | 2.0 | 6.0 | 0.00 | 0.00 | 0.00 | 94 | 1008.2 |
| 20260505153006 | 74 | 62 | 4.0 | 8.0 | 0.00 | 0.00 | 0.00 | 89 | 1008.5 |
| 20260505152503 | 74 | 42 | 4.0 | 9.0 | 0.00 | 0.00 | 0.00 | 89 | 1008.4 |
| 20260505151505 | 72 | 69 | 4.0 | 7.0 | 0.00 | 0.00 | 0.00 | 91 | 1008.6 |
| 20260505151005 | 72 | 64 | 4.0 | 7.0 | 0.00 | 0.00 | 0.00 | 91 | 1008.7 |
| 20260505150503 | 72 | 42 | 3.0 | 7.0 | 0.00 | 0.00 | 0.00 | 91 | 1009.0 |
| 20260505140504 | 70 | 57 | 4.0 | 7.0 | 0.00 | 0.00 | 0.00 | 94 | 1009.2 |
| 20260505125006 | 69 | 24 | 3.0 | 7.0 | 0.00 | 0.00 | 0.00 | 94 | 1009.0 |
| 20260505124006 | 69 | 44 | 3.0 | 9.0 | 0.00 | 0.00 | 0.00 | 93 | 1008.9 |
| 20260505123504 | 69 | 43 | 5.0 | 9.0 | 0.00 | 0.00 | 0.00 | 92 | 1009.1 |
| 20260505123005 | 69 | 43 | 5.0 | 8.0 | 0.00 | 0.00 | 0.00 | 92 | 1008.8 |
| 20260505122503 | 69 | 58 | 2.0 | 7.0 | 0.00 | 0.00 | 0.00 | 92 | 1008.7 |
| 20260505122006 | 69 | 63 | 3.0 | 7.0 | 0.00 | 0.00 | 0.00 | 93 | 1008.6 |
| 20260505121503 | 68 | 67 | 5.0 | 7.0 | 0.00 | 0.00 | 0.00 | 95 | 1009.0 |
| 20260505121005 | 68 | 81 | 4.0 | 7.0 | 0.00 | 0.00 | 0.00 | 95 | 1008.8 |
| 20260505120503 | 68 | 75 | 2.0 | 7.0 | 0.00 | 0.00 | 0.00 | 96 | 1008.7 |
| 20260505120006 | 67 | 65 | 2.0 | 6.0 | 0.00 | 0.00 | 0.00 | 96 | 1008.9 |
| 20260505115504 | 67 | 45 | 2.0 | 6.0 | 0.00 | 0.00 | 0.00 | 96 | 1008.5 |
| 20260505115005 | 67 | 39 | 2.0 | 6.0 | 0.00 | 0.00 | 0.00 | 97 | 1008.5 |
| 20260505114504 | 67 | 62 | 2.0 | 8.0 | 0.00 | 0.00 | 0.00 | 97 | 1008.4 |
| 20260505114005 | 67 | 63 | 3.0 | 8.0 | 0.00 | 0.00 | 0.00 | 97 | 1008.5 |
| 20260505113504 | 66 | 57 | 4.0 | 8.0 | 0.00 | 0.00 | 0.00 | 97 | 1008.5 |
| 20260505113006 | 66 | 72 | 4.0 | 6.0 | 0.00 | 0.00 | 0.00 | 98 | 1008.5 |
| 20260505112503 | 66 | 75 | 3.0 | 6.0 | 0.00 | 0.00 | 0.00 | 98 | 1008.5 |
| 20260505112005 | 66 | 74 | 2.0 | 4.0 | 0.00 | 0.00 | 0.00 | 98 | 1008.6 |
| 20260505111504 | 66 | 60 | 3.0 | 6.0 | 0.00 | 0.00 | 0.00 | 98 | 1008.5 |
| 20260505111005 | 66 | 66 | 2.0 | 6.0 | 0.00 | 0.00 | 0.00 | 98 | 1008.4 |
| 20260505110503 | 66 | 85 | 3.0 | 6.0 | 0.00 | 0.00 | 0.00 | 98 | 1008.6 |
| 20260505102005 | 66 | 83 | 1.0 | 4.0 | 0.00 | 0.00 | 0.00 | 98 | 1008.1 |
| 20260505101504 | 66 | 95 | 1.0 | 6.0 | 0.00 | 0.00 | 0.00 | 98 | 1008.1 |
| 20260505101006 | 66 | 90 | 2.0 | 6.0 | 0.00 | 0.00 | 0.00 | 98 | 1008.0 |
| 20260505100504 | 66 | 72 | 2.0 | 6.0 | 0.00 | 0.00 | 0.00 | 98 | 1008.1 |
| 20260505100006 | 66 | 72 | 2.0 | 6.0 | 0.00 | 0.00 | 0.00 | 98 | 1007.9 |
| 20260505095006 | 66 | 65 | 2.0 | 4.0 | 0.00 | 0.00 | 0.00 | 98 | 1007.9 |
| 20260505094505 | 66 | 77 | 3.0 | 4.0 | 0.00 | 0.00 | 0.00 | 98 | 1007.7 |
| 20260505093504 | 66 | 58 | 2.0 | 6.0 | 0.00 | 0.00 | 0.00 | 98 | 1007.6 |
| 20260505093006 | 66 | 49 | 2.0 | 6.0 | 0.00 | 0.00 | 0.00 | 98 | 1007.7 |
| 20260505092006 | 66 | 67 | 2.0 | 4.0 | 0.00 | 0.00 | 0.00 | 98 | 1007.5 |
| 20260505091505 | 66 | 58 | 3.0 | 4.0 | 0.00 | 0.00 | 0.00 | 98 | 1007.8 |
| 20260505091005 | 66 | 64 | 2.0 | 6.0 | 0.00 | 0.00 | 0.00 | 98 | 1007.6 |
| 20260505090503 | 66 | 83 | 3.0 | 6.0 | 0.00 | 0.00 | 0.00 | 98 | 1007.4 |
| 20260505085504 | 66 | 69 | 3.0 | 4.0 | 0.00 | 0.00 | 0.00 | 98 | 1007.4 |
| 20260505085006 | 66 | 83 | 3.0 | 4.0 | 0.00 | 0.00 | 0.00 | 98 | 1007.4 |
| 20260505084504 | 66 | 74 | 2.0 | 4.0 | 0.00 | 0.00 | 0.00 | 98 | 1007.5 |
| 20260505084006 | 66 | 69 | 2.0 | 4.0 | 0.00 | 0.00 | 0.00 | 98 | 1007.7 |
| 20260505083504 | 66 | 83 | 2.0 | 4.0 | 0.00 | 0.00 | 0.00 | 98 | 1007.8 |
| 20260505083006 | 66 | 69 | 2.0 | 4.0 | 0.00 | 0.00 | 0.00 | 98 | 1007.6 |
| 20260505082504 | 66 | 69 | 0.0 | 4.0 | 0.00 | 0.00 | 0.00 | 98 | 1008.0 |
| 20260505082005 | 66 | 60 | 1.0 | 4.0 | 0.00 | 0.00 | 0.00 | 98 | 1008.1 |
| 20260505081504 | 66 | 50 | 1.0 | 4.0 | 0.00 | 0.00 | 0.00 | 98 | 1007.7 |
| 20260505081006 | 66 | 64 | 2.0 | 6.0 | 0.00 | 0.00 | 0.00 | 98 | 1007.7 |
| 20260505080006 | 66 | 90 | 2.0 | 6.0 | 0.00 | 0.00 | 0.00 | 98 | 1007.8 |
| 20260505075006 | 66 | 84 | 3.0 | 4.0 | 0.00 | 0.00 | 0.00 | 98 | 1007.4 |
| 20260505074505 | 66 | 63 | 3.0 | 6.0 | 0.00 | 0.00 | 0.00 | 98 | 1007.4 |
| 20260505074006 | 66 | 64 | 1.0 | 6.0 | 0.00 | 0.00 | 0.00 | 98 | 1007.5 |
| 20260505073504 | 66 | 80 | 2.0 | 6.0 | 0.00 | 0.00 | 0.00 | 98 | 1007.4 |
| 20260505073006 | 66 | 77 | 4.0 | 6.0 | 0.00 | 0.00 | 0.00 | 98 | 1007.9 |
| 20260505072504 | 66 | 58 | 3.0 | 6.0 | 0.00 | 0.00 | 0.00 | 97 | 1007.6 |
| 20260505072006 | 66 | 69 | 2.0 | 6.0 | 0.00 | 0.00 | 0.00 | 97 | 1007.6 |
| 20260505071504 | 66 | 79 | 4.0 | 6.0 | 0.00 | 0.00 | 0.00 | 97 | 1007.9 |
| 20260505071006 | 66 | 52 | 1.0 | 6.0 | 0.00 | 0.00 | 0.00 | 97 | 1007.8 |
| 20260505070504 | 66 | 50 | 2.0 | 6.0 | 0.00 | 0.00 | 0.00 | 97 | 1008.0 |
| 20260505070006 | 66 | 48 | 3.0 | 6.0 | 0.00 | 0.00 | 0.00 | 97 | 1008.0 |
| 20260505065504 | 66 | 55 | 2.0 | 4.0 | 0.00 | 0.00 | 0.00 | 97 | 1008.1 |
| 20260505065006 | 66 | 65 | 2.0 | 4.0 | 0.00 | 0.00 | 0.00 | 97 | 1008.0 |
| 20260505064505 | 66 | 66 | 2.0 | 4.0 | 0.00 | 0.00 | 0.00 | 98 | 1007.9 |
| 20260505064006 | 66 | 55 | 2.0 | 4.0 | 0.00 | 0.00 | 0.00 | 98 | 1007.9 |
| 20260505063504 | 66 | 58 | 2.0 | 4.0 | 0.00 | 0.00 | 0.00 | 98 | 1007.8 |
| 20260505063006 | 66 | 73 | 2.0 | 4.0 | 0.00 | 0.00 | 0.00 | 98 | 1007.9 |
| 20260505062504 | 66 | 66 | 1.0 | 4.0 | 0.00 | 0.00 | 0.00 | 97 | 1008.2 |
| 20260505062006 | 66 | 72 | 2.0 | 4.0 | 0.00 | 0.00 | 0.00 | 97 | 1008.1 |
| 20260505061505 | 66 | 68 | 2.0 | 4.0 | 0.00 | 0.00 | 0.00 | 97 | 1008.1 |
| 20260505061006 | 66 | 73 | 0.0 | 4.0 | 0.00 | 0.00 | 0.00 | 97 | 1008.1 |
| 20260505060505 | 66 | 75 | 2.0 | 4.0 | 0.00 | 0.00 | 0.00 | 97 | 1008.2 |
| 20260505055505 | 66 | 84 | 2.0 | 4.0 | 0.00 | 0.00 | 0.00 | 97 | 1008.4 |
| 20260505055006 | 66 | 78 | 1.0 | 4.0 | 0.00 | 0.00 | 0.00 | 97 | 1008.2 |
| 20260505054504 | 66 | 67 | 0.0 | 4.0 | 0.00 | 0.00 | 0.00 | 97 | 1008.3 |
| 20260505054006 | 66 | 59 | 2.0 | 4.0 | 0.00 | 0.00 | 0.00 | 97 | 1008.2 |
| 20260505053505 | 66 | 56 | 2.0 | 4.0 | 0.00 | 0.00 | 0.00 | 96 | 1008.2 |
| 20260505053006 | 66 | 64 | 3.0 | 4.0 | 0.00 | 0.00 | 0.00 | 96 | 1008.3 |
| 20260505052007 | 66 | 52 | 2.0 | 4.0 | 0.00 | 0.00 | 0.00 | 96 | 1008.2 |
| 20260505051007 | 67 | 42 | 2.0 | 4.0 | 0.00 | 0.00 | 0.00 | 96 | 1008.3 |
| 20260505050504 | 66 | 57 | 2.0 | 4.0 | 0.00 | 0.00 | 0.00 | 96 | 1008.1 |
| 20260505041505 | 67 | 27 | 4.0 | 6.0 | 0.00 | 0.00 | 0.00 | 96 | 1008.2 |
| 20260505041006 | 67 | 27 | 2.0 | 7.0 | 0.00 | 0.00 | 0.00 | 96 | 1008.0 |
| 20260505040006 | 67 | 50 | 2.0 | 6.0 | 0.00 | 0.00 | 0.00 | 95 | 1008.3 |
| 20260505035505 | 67 | 49 | 3.0 | 6.0 | 0.00 | 0.00 | 0.00 | 95 | 1008.6 |
| 20260505035006 | 67 | 41 | 4.0 | 8.0 | 0.00 | 0.00 | 0.00 | 95 | 1008.3 |
| 20260505034504 | 67 | 38 | 2.0 | 8.0 | 0.00 | 0.00 | 0.00 | 95 | 1008.4 |
| 20260505034007 | 67 | 34 | 2.0 | 6.0 | 0.00 | 0.00 | 0.00 | 95 | 1008.5 |
| 20260505033505 | 67 | 4 | 2.0 | 7.0 | 0.00 | 0.00 | 0.00 | 95 | 1008.4 |
| 20260505033006 | 67 | 359 | 3.0 | 7.0 | 0.00 | 0.00 | 0.00 | 95 | 1008.5 |
| 20260505032504 | 67 | 359 | 4.0 | 7.0 | 0.00 | 0.00 | 0.00 | 94 | 1008.5 |
| 20260505032006 | 67 | 8 | 4.0 | 6.0 | 0.00 | 0.00 | 0.00 | 94 | 1008.4 |
| 20260505031505 | 67 | 31 | 2.0 | 6.0 | 0.00 | 0.00 | 0.00 | 94 | 1008.4 |
| 20260505030504 | 67 | 346 | 3.0 | 7.0 | 0.00 | 0.00 | 0.00 | 94 | 1008.4 |
| 20260505030009 | 67 | 10 | 4.0 | 7.0 | 0.00 | 0.00 | 0.00 | 93 | 1008.1 |
| 20260505025505 | 67 | 7 | 4.0 | 6.0 | 0.00 | 0.00 | 0.00 | 93 | 1008.1 |
| 20260505024505 | 68 | 17 | 3.0 | 6.0 | 0.00 | 0.00 | 0.00 | 93 | 1008.2 |
| 20260505023504 | 67 | 36 | 3.0 | 7.0 | 0.00 | 0.00 | 0.00 | 92 | 1008.0 |
| 20260505023006 | 67 | 19 | 3.0 | 9.0 | 0.00 | 0.00 | 0.00 | 92 | 1007.9 |
| 20260505022504 | 67 | 11 | 4.0 | 9.0 | 0.00 | 0.00 | 0.00 | 92 | 1007.8 |
| 20260505022007 | 67 | 26 | 4.0 | 7.0 | 0.00 | 0.00 | 0.00 | 92 | 1007.8 |
| 20260505021505 | 67 | 32 | 4.0 | 7.0 | 0.00 | 0.00 | 0.00 | 92 | 1008.1 |
| 20260505021006 | 67 | 24 | 3.0 | 9.0 | 0.00 | 0.00 | 0.00 | 92 | 1007.8 |
| 20260505020504 | 67 | 25 | 6.0 | 9.0 | 0.00 | 0.00 | 0.00 | 92 | 1007.8 |
| 20260505020007 | 67 | 16 | 3.0 | 9.0 | 0.00 | 0.00 | 0.00 | 92 | 1007.7 |
| 20260505015007 | 67 | 39 | 4.0 | 8.0 | 0.00 | 0.00 | 0.00 | 92 | 1007.7 |
| 20260505014505 | 67 | 33 | 4.0 | 7.0 | 0.00 | 0.00 | 0.00 | 92 | 1007.6 |
| 20260505014006 | 67 | 32 | 2.0 | 7.0 | 0.00 | 0.00 | 0.00 | 92 | 1008.0 |
| 20260505013504 | 67 | 27 | 2.0 | 8.0 | 0.00 | 0.00 | 0.00 | 92 | 1007.9 |
| 20260505012504 | 67 | 30 | 3.0 | 11.0 | 0.00 | 0.00 | 0.00 | 92 | 1007.8 |
| 20260505012006 | 67 | 26 | 5.0 | 9.0 | 0.00 | 0.00 | 0.00 | 92 | 1007.6 |
| 20260505011504 | 67 | 34 | 6.0 | 9.0 | 0.00 | 0.00 | 0.00 | 92 | 1007.8 |
| 20260505011006 | 67 | 34 | 2.0 | 7.0 | 0.00 | 0.00 | 0.00 | 92 | 1007.8 |
| 20260505010504 | 67 | 28 | 3.0 | 7.0 | 0.00 | 0.00 | 0.00 | 92 | 1007.4 |
| 20260505010007 | 67 | 29 | 5.0 | 7.0 | 0.00 | 0.00 | 0.00 | 92 | 1007.6 |
| 20260505004505 | 67 | 18 | 4.0 | 7.0 | 0.00 | 0.00 | 0.00 | 91 | 1007.7 |
| 20260505004007 | 67 | 21 | 4.0 | 7.0 | 0.00 | 0.00 | 0.00 | 91 | 1007.3 |
| 20260505003505 | 67 | 34 | 4.0 | 7.0 | 0.00 | 0.00 | 0.00 | 91 | 1007.6 |
| 20260505003007 | 67 | 38 | 4.0 | 7.0 | 0.00 | 0.00 | 0.00 | 91 | 1007.6 |
| 20260505002504 | 67 | 29 | 4.0 | 7.0 | 0.00 | 0.00 | 0.00 | 90 | 1007.5 |
| 20260505002006 | 67 | 20 | 4.0 | 7.0 | 0.00 | 0.00 | 0.00 | 91 | 1007.5 |
| 20260505001504 | 67 | 11 | 4.0 | 7.0 | 0.00 | 0.00 | 0.00 | 90 | 1007.5 |
| 20260505000504 | 66 | 61 | 3.0 | 7.0 | 0.00 | 0.00 | 0.00 | 90 | 1007.4 |
| 20260505000007 | 66 | 37 | 2.0 | 7.0 | 0.00 | 0.00 | 0.00 | 90 | 1006.9 |
| 20260504235505 | 66 | 33 | 3.0 | 6.0 | 0.00 | 0.00 | 0.00 | 90 | 1007.0 |
| 20260504235007 | 66 | 54 | 2.0 | 7.0 | 0.00 | 0.00 | 0.00 | 90 | 1007.1 |
| 20260504234504 | 66 | 48 | 2.0 | 7.0 | 0.00 | 0.00 | 0.00 | 90 | 1007.0 |
| 20260504234006 | 66 | 40 | 2.0 | 7.0 | 0.00 | 0.00 | 0.00 | 89 | 1007.0 |
| 20260504233504 | 67 | 38 | 2.0 | 7.0 | 0.00 | 0.00 | 0.00 | 89 | 1007.2 |
| 20260504233007 | 67 | 33 | 4.0 | 7.0 | 0.00 | 0.00 | 0.00 | 88 | 1006.9 |
| 20260504232505 | 67 | 62 | 4.0 | 7.0 | 0.00 | 0.00 | 0.00 | 88 | 1006.8 |
| 20260504232007 | 67 | 78 | 3.0 | 6.0 | 0.00 | 0.00 | 0.00 | 88 | 1006.7 |
| 20260504231505 | 67 | 63 | 2.0 | 6.0 | 0.00 | 0.00 | 0.00 | 87 | 1006.6 |
| 20260504231007 | 67 | 64 | 3.0 | 6.0 | 0.00 | 0.00 | 0.00 | 87 | 1006.5 |
| 20260504225505 | 66 | 90 | 2.0 | 6.0 | 0.00 | 0.00 | 0.00 | 85 | 1006.4 |
| 20260504225007 | 66 | 86 | 1.0 | 2.0 | 0.00 | 0.00 | 0.00 | 84 | 1006.4 |
| 20260504223007 | 67 | 96 | 1.0 | 4.0 | 0.00 | 0.00 | 0.00 | 82 | 1006.4 |
| 20260504222505 | 67 | 82 | 1.0 | 4.0 | 0.00 | 0.00 | 0.00 | 81 | 1006.2 |
| 20260504222007 | 67 | 98 | 1.0 | 4.0 | 0.00 | 0.00 | 0.00 | 81 | 1006.3 |
| 20260504221504 | 67 | 119 | 0.0 | 4.0 | 0.00 | 0.00 | 0.00 | 81 | 1006.2 |
| 20260504221007 | 67 | 89 | 1.0 | 6.0 | 0.00 | 0.00 | 0.00 | 80 | 1006.0 |
| 20260504220505 | 67 | 74 | 0.0 | 6.0 | 0.00 | 0.00 | 0.00 | 79 | 1006.0 |
| 20260504220007 | 67 | 72 | 3.0 | 6.0 | 0.00 | 0.00 | 0.00 | 78 | 1006.3 |
| 20260504215505 | 68 | 68 | 2.0 | 4.0 | 0.00 | 0.00 | 0.00 | 78 | 1006.3 |
| 20260504215007 | 68 | 80 | 2.0 | 4.0 | 0.00 | 0.00 | 0.00 | 77 | 1006.1 |
| 20260504214504 | 68 | 104 | 2.0 | 6.0 | 0.00 | 0.00 | 0.00 | 76 | 1006.1 |
| 20260504214008 | 68 | 112 | 0.0 | 6.0 | 0.00 | 0.00 | 0.00 | 77 | 1005.9 |
| 20260504213007 | 69 | 77 | 2.0 | 4.0 | 0.00 | 0.00 | 0.00 | 75 | 1005.8 |
| 20260504212504 | 70 | 69 | 2.0 | 4.0 | 0.00 | 0.00 | 0.00 | 73 | 1005.8 |
| 20260504212007 | 70 | 82 | 2.0 | 7.0 | 0.00 | 0.00 | 0.00 | 72 | 1005.6 |
| 20260504210007 | 71 | 66 | 2.0 | 6.0 | 0.00 | 0.00 | 0.00 | 68 | 1006.1 |
| 20260504205505 | 71 | 77 | 3.0 | 6.0 | 0.00 | 0.00 | 0.00 | 68 | 1006.0 |
| 20260504205008 | 71 | 53 | 1.0 | 6.0 | 0.00 | 0.00 | 0.00 | 68 | 1006.0 |
| 20260504204505 | 71 | 39 | 4.0 | 6.0 | 0.00 | 0.00 | 0.00 | 67 | 1006.1 |
| 20260504204007 | 71 | 54 | 3.0 | 6.0 | 0.00 | 0.00 | 0.00 | 66 | 1005.9 |
| 20260504203008 | 71 | 66 | 3.0 | 7.0 | 0.00 | 0.00 | 0.00 | 65 | 1006.1 |
| 20260504202505 | 71 | 63 | 4.0 | 11.0 | 0.00 | 0.00 | 0.00 | 65 | 1006.1 |
| 20260504202008 | 72 | 64 | 4.0 | 11.0 | 0.00 | 0.00 | 0.00 | 65 | 1006.2 |
| 20260504201505 | 72 | 62 | 5.0 | 11.0 | 0.00 | 0.00 | 0.00 | 65 | 1006.4 |
| 20260504201007 | 72 | 44 | 4.0 | 9.0 | 0.00 | 0.00 | 0.00 | 64 | 1006.3 |
| 20260504200505 | 72 | 35 | 4.0 | 9.0 | 0.00 | 0.00 | 0.00 | 64 | 1006.3 |
| 20260504195505 | 73 | 39 | 3.0 | 9.0 | 0.00 | 0.00 | 0.00 | 63 | 1006.4 |
| 20260504195007 | 73 | 51 | 3.0 | 11.0 | 0.00 | 0.00 | 0.00 | 63 | 1006.7 |
| 20260504194505 | 73 | 55 | 4.0 | 11.0 | 0.00 | 0.00 | 0.00 | 64 | 1006.5 |
| 20260504194008 | 73 | 60 | 4.0 | 8.0 | 0.00 | 0.00 | 0.00 | 63 | 1006.5 |
| 20260504193505 | 73 | 55 | 4.0 | 8.0 | 0.00 | 0.00 | 0.00 | 62 | 1006.8 |
| 20260504193008 | 73 | 64 | 4.0 | 8.0 | 0.00 | 0.00 | 0.00 | 60 | 1006.6 |
| 20260504192505 | 74 | 59 | 2.0 | 6.0 | 0.00 | 0.00 | 0.00 | 61 | 1006.5 |
| 20260504192008 | 73 | 53 | 3.0 | 8.0 | 0.00 | 0.00 | 0.00 | 62 | 1006.6 |
| 20260504191505 | 73 | 56 | 3.0 | 9.0 | 0.00 | 0.00 | 0.00 | 61 | 1006.7 |
| 20260504191007 | 73 | 49 | 4.0 | 9.0 | 0.00 | 0.00 | 0.00 | 61 | 1006.6 |
| 20260504190007 | 73 | 38 | 4.0 | 7.0 | 0.00 | 0.00 | 0.00 | 62 | 1006.7 |
| 20260504185505 | 73 | 42 | 4.0 | 9.0 | 0.00 | 0.00 | 0.00 | 62 | 1006.9 |
| 20260504185008 | 73 | 49 | 5.0 | 9.0 | 0.00 | 0.00 | 0.00 | 63 | 1006.5 |
| 20260504184505 | 73 | 62 | 4.0 | 8.0 | 0.00 | 0.00 | 0.00 | 61 | 1006.5 |
| 20260504184008 | 72 | 61 | 1.0 | 8.0 | 0.00 | 0.00 | 0.00 | 62 | 1006.8 |
| 20260504183505 | 73 | 82 | 4.0 | 8.0 | 0.00 | 0.00 | 0.00 | 62 | 1006.7 |
| 20260504183008 | 73 | 91 | 3.0 | 8.0 | 0.00 | 0.00 | 0.00 | 62 | 1006.7 |
| 20260504182505 | 73 | 82 | 4.0 | 8.0 | 0.00 | 0.00 | 0.00 | 62 | 1006.8 |
| 20260504182008 | 73 | 66 | 6.0 | 8.0 | 0.00 | 0.00 | 0.00 | 63 | 1006.6 |
| 20260504181505 | 72 | 51 | 5.0 | 8.0 | 0.00 | 0.00 | 0.00 | 63 | 1006.9 |
| 20260504181007 | 73 | 79 | 2.0 | 7.0 | 0.00 | 0.00 | 0.00 | 61 | 1007.1 |
| 20260504180505 | 72 | 93 | 3.0 | 7.0 | 0.00 | 0.00 | 0.00 | 62 | 1007.2 |
| 20260504180008 | 72 | 75 | 4.0 | 7.0 | 0.00 | 0.00 | 0.00 | 63 | 1007.3 |
| 20260504175008 | 71 | 53 | 4.0 | 11.0 | 0.00 | 0.00 | 0.00 | 66 | 1007.3 |
| 20260504174505 | 71 | 63 | 3.0 | 11.0 | 0.00 | 0.00 | 0.00 | 66 | 1007.7 |
| 20260504174008 | 71 | 68 | 4.0 | 9.0 | 0.00 | 0.00 | 0.00 | 65 | 1007.7 |
| 20260504173505 | 71 | 75 | 7.0 | 9.0 | 0.00 | 0.00 | 0.00 | 65 | 1007.8 |